contact:dominique.lefevre@mio.osupytheas.fr, maurice.libes@osupytheas.fr, didier.mallarino@osupytheas.fr
Project:EMSO http://www.emso-fr.org/EMSO-France
Depth: 2436.0 m
Title:EMSO Ligure Ouest : Data MII capteur MICROCAT
DateTime_Computer,Latitude,Longitude,Temperature,Conductivity,Pressure,DateTime_Instrument
DateTime_Computer,Latitude,Longitude,degC,S m-1,dbar,DateTime_Instrument
2023-12-16T00:02:16Z,42.805,6.029,13.3061,4.60149,2470.717,2023-12-16T02:04:46Z
2023-12-16T00:05:19Z,42.805,6.029,13.3062,4.60146,2470.754,2023-12-16T02:07:49Z
2023-12-16T00:08:22Z,42.805,6.029,13.3066,4.60147,2470.74,2023-12-16T02:10:52Z
2023-12-16T00:11:25Z,42.805,6.029,13.3063,4.60147,2470.754,2023-12-16T02:13:55Z
2023-12-16T00:14:28Z,42.805,6.029,13.3063,4.60149,2470.74,2023-12-16T02:16:58Z
2023-12-16T00:17:31Z,42.805,6.029,13.3067,4.60147,2470.777,2023-12-16T02:20:01Z
2023-12-16T00:20:35Z,42.805,6.029,13.3058,4.60143,2470.74,2023-12-16T02:23:04Z
2023-12-16T00:23:38Z,42.805,6.029,13.3063,4.60144,2470.754,2023-12-16T02:26:07Z
2023-12-16T00:26:41Z,42.805,6.029,13.3063,4.60146,2470.717,2023-12-16T02:29:11Z
2023-12-16T00:29:44Z,42.805,6.029,13.3061,4.60145,2470.73,2023-12-16T02:32:14Z
2023-12-16T00:32:47Z,42.805,6.029,13.3058,4.60149,2470.717,2023-12-16T02:35:17Z
2023-12-16T00:35:50Z,42.805,6.029,13.3058,4.60150,2470.693,2023-12-16T02:38:20Z
2023-12-16T00:38:53Z,42.805,6.029,13.3061,4.60152,2470.703,2023-12-16T02:41:23Z
2023-12-16T00:41:56Z,42.805,6.029,13.3067,4.60155,2470.73,2023-12-16T02:44:26Z
2023-12-16T00:44:59Z,42.805,6.029,13.3064,4.60150,2470.717,2023-12-16T02:47:29Z
2023-12-16T00:48:02Z,42.805,6.029,13.3066,4.60148,2470.73,2023-12-16T02:50:32Z
2023-12-16T00:51:05Z,42.805,6.029,13.3061,4.60156,2470.707,2023-12-16T02:53:35Z
2023-12-16T00:54:08Z,42.805,6.029,13.3063,4.60150,2470.717,2023-12-16T02:56:38Z
2023-12-16T00:57:12Z,42.805,6.029,13.3056,4.60144,2470.73,2023-12-16T02:59:41Z
2023-12-16T01:00:15Z,42.805,6.029,13.3058,4.60141,2470.717,2023-12-16T03:02:44Z
2023-12-16T01:03:18Z,42.805,6.029,13.3063,4.60142,2470.693,2023-12-16T03:05:48Z
2023-12-16T01:06:21Z,42.805,6.029,13.3061,4.60143,2470.73,2023-12-16T03:08:51Z
2023-12-16T01:09:24Z,42.805,6.029,13.3056,4.60148,2470.717,2023-12-16T03:11:54Z
2023-12-16T01:12:27Z,42.805,6.029,13.3061,4.60144,2470.73,2023-12-16T03:14:57Z
2023-12-16T01:15:30Z,42.805,6.029,13.3059,4.60155,2470.707,2023-12-16T03:18:00Z
2023-12-16T01:18:33Z,42.805,6.029,13.3062,4.60143,2470.693,2023-12-16T03:21:03Z
2023-12-16T01:21:36Z,42.805,6.029,13.3068,4.60156,2470.717,2023-12-16T03:24:06Z
2023-12-16T01:24:39Z,42.805,6.029,13.3058,4.60140,2470.73,2023-12-16T03:27:09Z
2023-12-16T01:27:42Z,42.805,6.029,13.3060,4.60149,2470.73,2023-12-16T03:30:12Z
2023-12-16T01:30:45Z,42.805,6.029,13.3064,4.60141,2470.717,2023-12-16T03:33:15Z
2023-12-16T01:33:48Z,42.805,6.029,13.3065,4.60145,2470.707,2023-12-16T03:36:18Z
2023-12-16T01:36:52Z,42.805,6.029,13.3064,4.60160,2470.693,2023-12-16T03:39:21Z
2023-12-16T01:39:55Z,42.805,6.029,13.3062,4.60154,2470.717,2023-12-16T03:42:25Z
2023-12-16T01:42:58Z,42.805,6.029,13.3060,4.60162,2470.707,2023-12-16T03:45:28Z
2023-12-16T01:46:01Z,42.805,6.029,13.3063,4.60152,2470.693,2023-12-16T03:48:31Z
2023-12-16T01:49:04Z,42.805,6.029,13.3061,4.60161,2470.707,2023-12-16T03:51:34Z
2023-12-16T01:52:07Z,42.805,6.029,13.3060,4.60157,2470.693,2023-12-16T03:54:37Z
2023-12-16T01:55:10Z,42.805,6.029,13.3066,4.60157,2470.73,2023-12-16T03:57:40Z
2023-12-16T01:58:13Z,42.805,6.029,13.3070,4.60155,2470.693,2023-12-16T04:00:43Z
2023-12-16T02:01:16Z,42.805,6.029,13.3070,4.60155,2470.67,2023-12-16T04:03:46Z
2023-12-16T02:04:19Z,42.805,6.029,13.3057,4.60160,2470.679,2023-12-16T04:06:49Z
2023-12-16T02:07:22Z,42.805,6.029,13.3057,4.60144,2470.693,2023-12-16T04:09:52Z
2023-12-16T02:10:25Z,42.805,6.029,13.3056,4.60146,2470.707,2023-12-16T04:12:55Z
2023-12-16T02:13:29Z,42.805,6.029,13.3063,4.60149,2470.73,2023-12-16T04:15:58Z
2023-12-16T02:16:32Z,42.805,6.029,13.3058,4.60141,2470.693,2023-12-16T04:19:01Z
2023-12-16T02:19:35Z,42.805,6.029,13.3058,4.60141,2470.67,2023-12-16T04:22:05Z
2023-12-16T02:22:38Z,42.805,6.029,13.3057,4.60142,2470.67,2023-12-16T04:25:08Z
2023-12-16T02:25:41Z,42.805,6.029,13.3054,4.60144,2470.67,2023-12-16T04:28:11Z
2023-12-16T02:28:44Z,42.805,6.029,13.3052,4.60142,2470.707,2023-12-16T04:31:14Z
2023-12-16T02:31:47Z,42.805,6.029,13.3059,4.60154,2470.693,2023-12-16T04:34:17Z
2023-12-16T02:34:50Z,42.805,6.029,13.3066,4.60158,2470.693,2023-12-16T04:37:20Z
2023-12-16T02:37:53Z,42.805,6.029,13.3062,4.60148,2470.67,2023-12-16T04:40:23Z
2023-12-16T02:40:56Z,42.805,6.029,13.3060,4.60154,2470.684,2023-12-16T04:43:26Z
2023-12-16T02:43:59Z,42.805,6.029,13.3059,4.60144,2470.67,2023-12-16T04:46:29Z
2023-12-16T02:47:02Z,42.805,6.029,13.3058,4.60153,2470.693,2023-12-16T04:49:32Z
2023-12-16T02:50:06Z,42.805,6.029,13.3063,4.60147,2470.661,2023-12-16T04:52:35Z
2023-12-16T02:53:09Z,42.805,6.029,13.3057,4.60140,2470.74,2023-12-16T04:55:38Z
2023-12-16T02:56:12Z,42.805,6.029,13.3062,4.60152,2470.693,2023-12-16T04:58:42Z
2023-12-16T02:59:15Z,42.805,6.029,13.3060,4.60150,2470.693,2023-12-16T05:01:45Z
2023-12-16T03:02:18Z,42.805,6.029,13.3059,4.60151,2470.679,2023-12-16T05:04:48Z
2023-12-16T03:05:21Z,42.805,6.029,13.3057,4.60139,2470.693,2023-12-16T05:07:51Z
2023-12-16T03:08:24Z,42.805,6.029,13.3063,4.60155,2470.684,2023-12-16T05:10:54Z
2023-12-16T03:11:27Z,42.805,6.029,13.3057,4.60144,2470.693,2023-12-16T05:13:57Z
2023-12-16T03:14:30Z,42.805,6.029,13.3061,4.60144,2470.717,2023-12-16T05:17:00Z
2023-12-16T03:17:33Z,42.805,6.029,13.3061,4.60143,2470.684,2023-12-16T05:20:03Z
2023-12-16T03:20:36Z,42.805,6.029,13.3052,4.60137,2470.693,2023-12-16T05:23:06Z
2023-12-16T03:23:39Z,42.805,6.029,13.3061,4.60137,2470.717,2023-12-16T05:26:09Z
2023-12-16T03:26:43Z,42.805,6.029,13.3062,4.60153,2470.693,2023-12-16T05:29:12Z
2023-12-16T03:29:46Z,42.805,6.029,13.3056,4.60142,2470.73,2023-12-16T05:32:15Z
2023-12-16T03:32:49Z,42.805,6.029,13.3061,4.60150,2470.693,2023-12-16T05:35:19Z
2023-12-16T03:35:52Z,42.805,6.029,13.3054,4.60141,2470.717,2023-12-16T05:38:22Z
2023-12-16T03:38:55Z,42.805,6.029,13.3061,4.60147,2470.74,2023-12-16T05:41:25Z
2023-12-16T03:41:58Z,42.805,6.029,13.3056,4.60155,2470.74,2023-12-16T05:44:28Z
2023-12-16T03:45:01Z,42.805,6.029,13.3060,4.60149,2470.693,2023-12-16T05:47:31Z
2023-12-16T03:48:04Z,42.805,6.029,13.3053,4.60142,2470.693,2023-12-16T05:50:34Z
2023-12-16T03:51:07Z,42.805,6.029,13.3063,4.60150,2470.693,2023-12-16T05:53:37Z
2023-12-16T03:54:10Z,42.805,6.029,13.3057,4.60152,2470.717,2023-12-16T05:56:40Z
2023-12-16T03:57:13Z,42.805,6.029,13.3063,4.60152,2470.693,2023-12-16T05:59:43Z
2023-12-16T04:00:16Z,42.805,6.029,13.3056,4.60143,2470.717,2023-12-16T06:02:46Z
2023-12-16T04:03:20Z,42.805,6.029,13.3060,4.60152,2470.693,2023-12-16T06:05:49Z
2023-12-16T04:06:23Z,42.805,6.029,13.3061,4.60149,2470.717,2023-12-16T06:08:53Z
2023-12-16T04:09:26Z,42.805,6.029,13.3057,4.60151,2470.73,2023-12-16T06:11:56Z
2023-12-16T04:12:29Z,42.805,6.029,13.3056,4.60148,2470.693,2023-12-16T06:14:59Z
2023-12-16T04:15:32Z,42.805,6.029,13.3060,4.60156,2470.73,2023-12-16T06:18:02Z
2023-12-16T04:18:35Z,42.805,6.029,13.3060,4.60151,2470.73,2023-12-16T06:21:05Z
2023-12-16T04:21:38Z,42.805,6.029,13.3062,4.60153,2470.717,2023-12-16T06:24:08Z
2023-12-16T04:24:41Z,42.805,6.029,13.3058,4.60150,2470.693,2023-12-16T06:27:11Z
2023-12-16T04:27:44Z,42.805,6.029,13.3060,4.60146,2470.693,2023-12-16T06:30:14Z
2023-12-16T04:30:47Z,42.805,6.029,13.3052,4.60148,2470.684,2023-12-16T06:33:17Z
2023-12-16T04:33:50Z,42.805,6.029,13.3058,4.60149,2470.693,2023-12-16T06:36:20Z
2023-12-16T04:36:54Z,42.805,6.029,13.3051,4.60150,2470.693,2023-12-16T06:39:23Z
2023-12-16T04:39:57Z,42.805,6.029,13.3061,4.60150,2470.693,2023-12-16T06:42:26Z
2023-12-16T04:43:00Z,42.805,6.029,13.3054,4.60147,2470.707,2023-12-16T06:45:29Z
2023-12-16T04:46:03Z,42.805,6.029,13.3057,4.60150,2470.693,2023-12-16T06:48:33Z
2023-12-16T04:49:06Z,42.805,6.029,13.3054,4.60139,2470.693,2023-12-16T06:51:36Z
2023-12-16T04:52:09Z,42.805,6.029,13.3060,4.60157,2470.73,2023-12-16T06:54:39Z
2023-12-16T04:55:12Z,42.805,6.029,13.3059,4.60155,2470.74,2023-12-16T06:57:42Z
2023-12-16T04:58:15Z,42.805,6.029,13.3058,4.60150,2470.693,2023-12-16T07:00:45Z
2023-12-16T05:01:18Z,42.805,6.029,13.3056,4.60137,2470.693,2023-12-16T07:03:48Z
2023-12-16T05:04:21Z,42.805,6.029,13.3067,4.60150,2470.693,2023-12-16T07:06:51Z
2023-12-16T05:07:24Z,42.805,6.029,13.3067,4.60169,2470.693,2023-12-16T07:09:54Z
2023-12-16T05:10:27Z,42.805,6.029,13.3061,4.60140,2470.74,2023-12-16T07:12:57Z
2023-12-16T05:13:30Z,42.805,6.029,13.3057,4.60157,2470.717,2023-12-16T07:16:00Z
2023-12-16T05:16:34Z,42.805,6.029,13.3058,4.60147,2470.73,2023-12-16T07:19:03Z
2023-12-16T05:19:37Z,42.805,6.029,13.3056,4.60148,2470.717,2023-12-16T07:22:07Z
2023-12-16T05:22:40Z,42.805,6.029,13.3066,4.60162,2470.73,2023-12-16T07:25:10Z
2023-12-16T05:25:43Z,42.805,6.029,13.3055,4.60150,2470.707,2023-12-16T07:28:13Z
2023-12-16T05:28:46Z,42.805,6.029,13.3059,4.60161,2470.777,2023-12-16T07:31:16Z
2023-12-16T05:31:50Z,42.805,6.029,13.3054,4.60147,2470.726,2023-12-16T07:34:20Z
2023-12-16T05:34:53Z,42.805,6.029,13.3059,4.60147,2470.74,2023-12-16T07:37:23Z
2023-12-16T05:37:56Z,42.805,6.029,13.3051,4.60147,2470.74,2023-12-16T07:40:26Z
2023-12-16T05:40:59Z,42.805,6.029,13.3056,4.60145,2470.74,2023-12-16T07:43:29Z
2023-12-16T05:44:02Z,42.805,6.029,13.3061,4.60153,2470.74,2023-12-16T07:46:32Z
2023-12-16T05:47:05Z,42.805,6.029,13.3062,4.60151,2470.763,2023-12-16T07:49:35Z
2023-12-16T05:50:08Z,42.805,6.029,13.3050,4.60141,2470.74,2023-12-16T07:52:38Z
2023-12-16T05:53:12Z,42.805,6.029,13.3051,4.60138,2470.787,2023-12-16T07:55:41Z
2023-12-16T05:56:15Z,42.805,6.029,13.3060,4.60155,2470.763,2023-12-16T07:58:44Z
2023-12-16T05:59:18Z,42.805,6.029,13.3057,4.60145,2470.777,2023-12-16T08:01:48Z
2023-12-16T06:02:21Z,42.805,6.029,13.3051,4.60142,2470.787,2023-12-16T08:04:51Z
2023-12-16T06:05:24Z,42.805,6.029,13.3054,4.60137,2470.787,2023-12-16T08:07:54Z
2023-12-16T06:08:27Z,42.805,6.029,13.3055,4.60134,2470.824,2023-12-16T08:10:57Z
2023-12-16T06:11:30Z,42.805,6.029,13.3054,4.60144,2470.824,2023-12-16T08:14:00Z
2023-12-16T06:14:33Z,42.805,6.029,13.3061,4.60157,2470.833,2023-12-16T08:17:03Z
2023-12-16T06:17:36Z,42.805,6.029,13.3056,4.60135,2470.81,2023-12-16T08:20:06Z
2023-12-16T06:20:39Z,42.805,6.029,13.3061,4.60152,2470.787,2023-12-16T08:23:09Z
2023-12-16T06:23:42Z,42.805,6.029,13.3055,4.60152,2470.81,2023-12-16T08:26:12Z
2023-12-16T06:26:45Z,42.805,6.029,13.3055,4.60151,2470.833,2023-12-16T08:29:15Z
2023-12-16T06:29:48Z,42.805,6.029,13.3052,4.60153,2470.833,2023-12-16T08:32:18Z
2023-12-16T06:32:52Z,42.805,6.029,13.3058,4.60137,2470.81,2023-12-16T08:35:21Z
2023-12-16T06:35:55Z,42.805,6.029,13.3052,4.60157,2470.833,2023-12-16T08:38:25Z
2023-12-16T06:38:58Z,42.805,6.029,13.3055,4.60167,2470.847,2023-12-16T08:41:28Z
2023-12-16T06:42:01Z,42.805,6.029,13.3054,4.60157,2470.871,2023-12-16T08:44:31Z
2023-12-16T06:45:04Z,42.805,6.029,13.3061,4.60173,2470.88,2023-12-16T08:47:34Z
2023-12-16T06:48:07Z,42.805,6.029,13.3057,4.60156,2470.847,2023-12-16T08:50:37Z
2023-12-16T06:51:10Z,42.805,6.029,13.3069,4.60167,2470.857,2023-12-16T08:53:40Z
2023-12-16T06:54:13Z,42.805,6.029,13.3056,4.60162,2470.81,2023-12-16T08:56:43Z
2023-12-16T06:57:16Z,42.805,6.029,13.3059,4.60152,2470.857,2023-12-16T08:59:46Z
2023-12-16T07:00:19Z,42.805,6.029,13.3057,4.60160,2470.833,2023-12-16T09:02:49Z
2023-12-16T07:03:22Z,42.805,6.029,13.3057,4.60148,2470.917,2023-12-16T09:05:52Z
2023-12-16T07:06:25Z,42.805,6.029,13.3054,4.60143,2470.894,2023-12-16T09:08:55Z
2023-12-16T07:09:29Z,42.805,6.029,13.3055,4.60154,2470.833,2023-12-16T09:11:58Z
2023-12-16T07:12:32Z,42.805,6.029,13.3058,4.60161,2470.904,2023-12-16T09:15:01Z
2023-12-16T07:15:35Z,42.805,6.029,13.3061,4.60148,2470.894,2023-12-16T09:18:05Z
2023-12-16T07:18:38Z,42.805,6.029,13.3067,4.60144,2470.904,2023-12-16T09:21:08Z
2023-12-16T07:21:41Z,42.805,6.029,13.3054,4.60154,2470.88,2023-12-16T09:24:11Z
2023-12-16T07:24:44Z,42.805,6.029,13.3069,4.60163,2470.857,2023-12-16T09:27:14Z
2023-12-16T07:27:47Z,42.805,6.029,13.3072,4.60154,2470.904,2023-12-16T09:30:17Z
2023-12-16T07:30:50Z,42.805,6.029,13.3053,4.60143,2470.917,2023-12-16T09:33:20Z
2023-12-16T07:33:53Z,42.805,6.029,13.3055,4.60157,2470.927,2023-12-16T09:36:23Z
2023-12-16T07:36:56Z,42.805,6.029,13.3060,4.60159,2470.904,2023-12-16T09:39:26Z
2023-12-16T07:39:59Z,42.805,6.029,13.3068,4.60160,2470.904,2023-12-16T09:42:29Z
2023-12-16T07:43:02Z,42.805,6.029,13.3056,4.60145,2470.927,2023-12-16T09:45:32Z
2023-12-16T07:46:06Z,42.805,6.029,13.3056,4.60141,2470.927,2023-12-16T09:48:35Z
2023-12-16T07:49:09Z,42.805,6.029,13.3058,4.60162,2470.95,2023-12-16T09:51:38Z
2023-12-16T07:52:12Z,42.805,6.029,13.3054,4.60151,2470.964,2023-12-16T09:54:42Z
2023-12-16T07:55:15Z,42.805,6.029,13.3051,4.60143,2470.904,2023-12-16T09:57:45Z
2023-12-16T07:58:18Z,42.805,6.029,13.3070,4.60157,2470.927,2023-12-16T10:00:48Z
2023-12-16T08:01:21Z,42.805,6.029,13.3052,4.60135,2470.927,2023-12-16T10:03:51Z
2023-12-16T08:04:24Z,42.805,6.029,13.3057,4.60150,2470.954,2023-12-16T10:06:54Z
2023-12-16T08:07:27Z,42.805,6.029,13.3061,4.60157,2470.95,2023-12-16T10:09:57Z
2023-12-16T08:10:30Z,42.805,6.029,13.3062,4.60162,2470.917,2023-12-16T10:13:00Z
2023-12-16T08:13:33Z,42.805,6.029,13.3057,4.60160,2470.927,2023-12-16T10:16:03Z
2023-12-16T08:16:36Z,42.805,6.029,13.3057,4.60146,2470.927,2023-12-16T10:19:06Z
2023-12-16T08:19:39Z,42.805,6.029,13.3069,4.60156,2470.94,2023-12-16T10:22:09Z
2023-12-16T08:22:43Z,42.805,6.029,13.3063,4.60155,2470.927,2023-12-16T10:25:12Z
2023-12-16T08:25:46Z,42.805,6.029,13.3068,4.60160,2470.95,2023-12-16T10:28:15Z
2023-12-16T08:28:49Z,42.805,6.029,13.3056,4.60155,2470.997,2023-12-16T10:31:19Z
2023-12-16T08:31:52Z,42.805,6.029,13.3061,4.60177,2470.964,2023-12-16T10:34:22Z
2023-12-16T08:34:55Z,42.805,6.029,13.3070,4.60165,2470.95,2023-12-16T10:37:25Z
2023-12-16T08:37:58Z,42.805,6.029,13.3056,4.60168,2470.95,2023-12-16T10:40:28Z
2023-12-16T08:41:01Z,42.805,6.029,13.3061,4.60156,2470.997,2023-12-16T10:43:31Z
2023-12-16T08:44:04Z,42.805,6.029,13.3061,4.60165,2470.973,2023-12-16T10:46:34Z
2023-12-16T08:47:07Z,42.805,6.029,13.3056,4.60167,2470.964,2023-12-16T10:49:37Z
2023-12-16T08:50:10Z,42.805,6.029,13.3055,4.60145,2471.01,2023-12-16T10:52:40Z
2023-12-16T08:53:13Z,42.805,6.029,13.3057,4.60154,2470.95,2023-12-16T10:55:43Z
2023-12-16T08:56:16Z,42.805,6.029,13.3058,4.60162,2470.973,2023-12-16T10:58:46Z
2023-12-16T08:59:20Z,42.805,6.029,13.3063,4.60166,2470.987,2023-12-16T11:01:49Z
2023-12-16T09:02:23Z,42.805,6.029,13.3059,4.60164,2470.987,2023-12-16T11:04:52Z
2023-12-16T09:05:26Z,42.805,6.029,13.3061,4.60153,2471.02,2023-12-16T11:07:56Z
2023-12-16T09:08:29Z,42.805,6.029,13.3069,4.60164,2470.997,2023-12-16T11:10:59Z
2023-12-16T09:11:32Z,42.805,6.029,13.3056,4.60153,2470.973,2023-12-16T11:14:02Z
2023-12-16T09:14:35Z,42.805,6.029,13.3054,4.60165,2470.95,2023-12-16T11:17:05Z
2023-12-16T09:17:38Z,42.805,6.029,13.3061,4.60171,2470.997,2023-12-16T11:20:08Z
2023-12-16T09:20:41Z,42.805,6.029,13.3055,4.60151,2470.997,2023-12-16T11:23:11Z
2023-12-16T09:23:44Z,42.805,6.029,13.3073,4.60175,2470.987,2023-12-16T11:26:14Z
2023-12-16T09:26:47Z,42.805,6.029,13.3049,4.60152,2470.987,2023-12-16T11:29:17Z
2023-12-16T09:29:50Z,42.805,6.029,13.3052,4.60151,2470.997,2023-12-16T11:32:20Z
2023-12-16T09:32:53Z,42.805,6.029,13.3057,4.60143,2470.997,2023-12-16T11:35:23Z
2023-12-16T09:35:57Z,42.805,6.029,13.3058,4.60160,2470.997,2023-12-16T11:38:26Z
2023-12-16T09:39:00Z,42.805,6.029,13.3054,4.60158,2470.973,2023-12-16T11:41:29Z
2023-12-16T09:42:03Z,42.805,6.029,13.3066,4.60157,2471.034,2023-12-16T11:44:33Z
2023-12-16T09:45:06Z,42.805,6.029,13.3061,4.60169,2470.987,2023-12-16T11:47:36Z
2023-12-16T09:48:09Z,42.805,6.029,13.3066,4.60175,2470.987,2023-12-16T11:50:39Z
2023-12-16T09:51:12Z,42.805,6.029,13.3054,4.60163,2471.01,2023-12-16T11:53:42Z
2023-12-16T09:54:15Z,42.805,6.029,13.3053,4.60150,2470.997,2023-12-16T11:56:45Z
2023-12-16T09:57:18Z,42.805,6.029,13.3066,4.60163,2470.987,2023-12-16T11:59:48Z
2023-12-16T10:00:21Z,42.805,6.029,13.3070,4.60165,2470.973,2023-12-16T12:02:51Z
2023-12-16T10:03:24Z,42.805,6.029,13.3053,4.60152,2471.01,2023-12-16T12:05:54Z
2023-12-16T10:06:27Z,42.805,6.029,13.3063,4.60156,2471.01,2023-12-16T12:08:57Z
2023-12-16T10:09:30Z,42.805,6.029,13.3061,4.60153,2470.997,2023-12-16T12:12:00Z
2023-12-16T10:12:34Z,42.805,6.029,13.3057,4.60158,2471.01,2023-12-16T12:15:03Z
2023-12-16T10:15:37Z,42.805,6.029,13.3059,4.60151,2470.973,2023-12-16T12:18:07Z
2023-12-16T10:18:40Z,42.805,6.029,13.3052,4.60140,2470.964,2023-12-16T12:21:10Z
2023-12-16T10:21:43Z,42.805,6.029,13.3049,4.60138,2471.034,2023-12-16T12:24:13Z
2023-12-16T10:24:46Z,42.805,6.029,13.3052,4.60161,2470.997,2023-12-16T12:27:16Z
2023-12-16T10:27:49Z,42.805,6.029,13.3061,4.60150,2470.964,2023-12-16T12:30:19Z
2023-12-16T10:30:52Z,42.805,6.029,13.3055,4.60156,2470.997,2023-12-16T12:33:22Z
2023-12-16T10:33:55Z,42.805,6.029,13.3064,4.60159,2470.987,2023-12-16T12:36:25Z
2023-12-16T10:36:58Z,42.805,6.029,13.3054,4.60155,2470.987,2023-12-16T12:39:28Z
2023-12-16T10:40:01Z,42.805,6.029,13.3060,4.60144,2470.997,2023-12-16T12:42:31Z
2023-12-16T10:43:04Z,42.805,6.029,13.3058,4.60157,2470.95,2023-12-16T12:45:34Z
2023-12-16T10:46:08Z,42.805,6.029,13.3063,4.60147,2470.973,2023-12-16T12:48:37Z
2023-12-16T10:49:11Z,42.805,6.029,13.3059,4.60145,2470.987,2023-12-16T12:51:40Z
2023-12-16T10:52:14Z,42.805,6.029,13.3064,4.60154,2470.987,2023-12-16T12:54:44Z
2023-12-16T10:55:17Z,42.805,6.029,13.3052,4.60151,2470.973,2023-12-16T12:57:47Z
2023-12-16T10:58:20Z,42.805,6.029,13.3055,4.60160,2470.987,2023-12-16T13:00:50Z
2023-12-16T11:01:23Z,42.805,6.029,13.3061,4.60160,2470.987,2023-12-16T13:03:53Z
2023-12-16T11:04:26Z,42.805,6.029,13.3058,4.60163,2470.987,2023-12-16T13:06:56Z
2023-12-16T11:07:29Z,42.805,6.029,13.3063,4.60173,2470.987,2023-12-16T13:09:59Z
2023-12-16T11:10:32Z,42.805,6.029,13.3052,4.60142,2470.95,2023-12-16T13:13:02Z
2023-12-16T11:13:35Z,42.805,6.029,13.3051,4.60155,2470.95,2023-12-16T13:16:05Z
2023-12-16T11:16:38Z,42.805,6.029,13.3051,4.60158,2470.927,2023-12-16T13:19:08Z
2023-12-16T11:19:41Z,42.805,6.029,13.3058,4.60155,2470.987,2023-12-16T13:22:11Z
2023-12-16T11:22:45Z,42.805,6.029,13.3054,4.60152,2470.95,2023-12-16T13:25:14Z
2023-12-16T11:25:48Z,42.805,6.029,13.3061,4.60149,2470.927,2023-12-16T13:28:17Z
2023-12-16T11:28:51Z,42.805,6.029,13.3055,4.60149,2470.95,2023-12-16T13:31:21Z
2023-12-16T11:31:54Z,42.805,6.029,13.3059,4.60153,2470.964,2023-12-16T13:34:24Z
2023-12-16T11:34:57Z,42.805,6.029,13.3059,4.60167,2470.95,2023-12-16T13:37:27Z
2023-12-16T11:38:00Z,42.805,6.029,13.3050,4.60156,2470.95,2023-12-16T13:40:30Z
2023-12-16T11:41:03Z,42.805,6.029,13.3053,4.60150,2470.927,2023-12-16T13:43:33Z
2023-12-16T11:44:06Z,42.805,6.029,13.3052,4.60152,2470.927,2023-12-16T13:46:36Z
2023-12-16T11:47:09Z,42.805,6.029,13.3061,4.60150,2470.95,2023-12-16T13:49:39Z
2023-12-16T11:50:12Z,42.805,6.029,13.3067,4.60166,2470.964,2023-12-16T13:52:42Z
2023-12-16T11:53:15Z,42.805,6.029,13.3063,4.60155,2470.94,2023-12-16T13:55:45Z
2023-12-16T11:56:19Z,42.805,6.029,13.3051,4.60150,2470.917,2023-12-16T13:58:48Z
2023-12-16T11:59:22Z,42.805,6.029,13.3056,4.60143,2470.94,2023-12-16T14:01:51Z
2023-12-16T12:02:25Z,42.805,6.029,13.3058,4.60138,2470.927,2023-12-16T14:04:55Z
2023-12-16T12:05:28Z,42.805,6.029,13.3056,4.60149,2470.927,2023-12-16T14:07:58Z
2023-12-16T12:08:31Z,42.805,6.029,13.3051,4.60150,2470.95,2023-12-16T14:11:01Z
2023-12-16T12:11:34Z,42.805,6.029,13.3050,4.60150,2470.927,2023-12-16T14:14:04Z
2023-12-16T12:14:37Z,42.805,6.029,13.3059,4.60154,2470.94,2023-12-16T14:17:07Z
2023-12-16T12:17:40Z,42.805,6.029,13.3062,4.60160,2470.927,2023-12-16T14:20:10Z
2023-12-16T12:20:43Z,42.805,6.029,13.3057,4.60150,2470.913,2023-12-16T14:23:13Z
2023-12-16T12:23:46Z,42.805,6.029,13.3060,4.60165,2470.904,2023-12-16T14:26:16Z
2023-12-16T12:26:49Z,42.805,6.029,13.3065,4.60145,2470.94,2023-12-16T14:29:19Z
2023-12-16T12:29:52Z,42.805,6.029,13.3058,4.60150,2470.927,2023-12-16T14:32:22Z
2023-12-16T12:32:56Z,42.805,6.029,13.3052,4.60138,2470.88,2023-12-16T14:35:25Z
2023-12-16T12:35:59Z,42.805,6.029,13.3055,4.60152,2470.917,2023-12-16T14:38:29Z
2023-12-16T12:39:02Z,42.805,6.029,13.3057,4.60151,2470.904,2023-12-16T14:41:32Z
2023-12-16T12:42:05Z,42.805,6.029,13.3057,4.60167,2470.904,2023-12-16T14:44:35Z
2023-12-16T12:45:08Z,42.805,6.029,13.3060,4.60155,2470.927,2023-12-16T14:47:38Z
2023-12-16T12:48:11Z,42.805,6.029,13.3052,4.60149,2470.88,2023-12-16T14:50:41Z
2023-12-16T12:51:14Z,42.805,6.029,13.3056,4.60140,2470.904,2023-12-16T14:53:44Z
2023-12-16T12:54:17Z,42.805,6.029,13.3056,4.60150,2470.917,2023-12-16T14:56:47Z
2023-12-16T12:57:20Z,42.805,6.029,13.3050,4.60155,2470.894,2023-12-16T14:59:50Z
2023-12-16T13:00:23Z,42.805,6.029,13.3058,4.60157,2470.927,2023-12-16T15:02:53Z
2023-12-16T13:03:26Z,42.805,6.029,13.3057,4.60167,2470.857,2023-12-16T15:05:56Z
2023-12-16T13:06:30Z,42.805,6.029,13.3049,4.60140,2470.904,2023-12-16T15:08:59Z
2023-12-16T13:09:33Z,42.805,6.029,13.3063,4.60166,2470.88,2023-12-16T15:12:02Z
2023-12-16T13:12:36Z,42.805,6.029,13.3057,4.60148,2470.88,2023-12-16T15:15:06Z
2023-12-16T13:15:39Z,42.805,6.029,13.3053,4.60160,2470.857,2023-12-16T15:18:09Z
2023-12-16T13:18:42Z,42.805,6.029,13.3052,4.60150,2470.857,2023-12-16T15:21:12Z
2023-12-16T13:21:45Z,42.805,6.029,13.3060,4.60164,2470.894,2023-12-16T15:24:15Z
2023-12-16T13:24:48Z,42.805,6.029,13.3061,4.60173,2470.857,2023-12-16T15:27:18Z
2023-12-16T13:27:51Z,42.805,6.029,13.3061,4.60166,2470.857,2023-12-16T15:30:21Z
2023-12-16T13:30:55Z,42.805,6.029,13.3056,4.60152,2470.88,2023-12-16T15:33:25Z
2023-12-16T13:33:58Z,42.805,6.029,13.3055,4.60162,2470.871,2023-12-16T15:36:28Z
2023-12-16T13:37:01Z,42.805,6.029,13.3064,4.60157,2470.871,2023-12-16T15:39:31Z
2023-12-16T13:40:04Z,42.805,6.029,13.3053,4.60164,2470.871,2023-12-16T15:42:34Z
2023-12-16T13:43:07Z,42.805,6.029,13.3061,4.60175,2470.857,2023-12-16T15:45:37Z
2023-12-16T13:46:10Z,42.805,6.029,13.3056,4.60155,2470.857,2023-12-16T15:48:40Z
2023-12-16T13:49:13Z,42.805,6.029,13.3063,4.60150,2470.857,2023-12-16T15:51:43Z
2023-12-16T13:52:16Z,42.805,6.029,13.3051,4.60155,2470.88,2023-12-16T15:54:46Z
2023-12-16T13:55:20Z,42.805,6.029,13.3057,4.60146,2470.88,2023-12-16T15:57:49Z
2023-12-16T13:58:23Z,42.805,6.029,13.3054,4.60132,2470.82,2023-12-16T16:00:52Z
2023-12-16T14:01:26Z,42.805,6.029,13.3054,4.60143,2470.857,2023-12-16T16:03:56Z
2023-12-16T14:04:29Z,42.805,6.029,13.3057,4.60147,2470.857,2023-12-16T16:06:59Z
2023-12-16T14:07:32Z,42.805,6.029,13.3052,4.60159,2470.904,2023-12-16T16:10:02Z
2023-12-16T14:10:35Z,42.805,6.029,13.3057,4.60144,2470.857,2023-12-16T16:13:05Z
2023-12-16T14:13:38Z,42.805,6.029,13.3058,4.60164,2470.88,2023-12-16T16:16:08Z
2023-12-16T14:16:41Z,42.805,6.029,13.3051,4.60145,2470.81,2023-12-16T16:19:11Z
2023-12-16T14:19:44Z,42.805,6.029,13.3058,4.60162,2470.857,2023-12-16T16:22:14Z
2023-12-16T14:22:47Z,42.805,6.029,13.3062,4.60180,2470.833,2023-12-16T16:25:17Z
2023-12-16T14:25:50Z,42.805,6.029,13.3066,4.60164,2470.847,2023-12-16T16:28:20Z
2023-12-16T14:28:53Z,42.805,6.029,13.3061,4.60168,2470.847,2023-12-16T16:31:23Z
2023-12-16T14:31:57Z,42.805,6.029,13.3057,4.60160,2470.833,2023-12-16T16:34:26Z
2023-12-16T14:35:00Z,42.805,6.029,13.3061,4.60180,2470.833,2023-12-16T16:37:29Z
2023-12-16T14:38:03Z,42.805,6.029,13.3062,4.60176,2470.871,2023-12-16T16:40:33Z
2023-12-16T14:41:06Z,42.805,6.029,13.3047,4.60141,2470.833,2023-12-16T16:43:36Z
2023-12-16T14:44:09Z,42.805,6.029,13.3057,4.60157,2470.824,2023-12-16T16:46:39Z
2023-12-16T14:47:12Z,42.805,6.029,13.3058,4.60147,2470.847,2023-12-16T16:49:42Z
2023-12-16T14:50:15Z,42.805,6.029,13.3055,4.60143,2470.857,2023-12-16T16:52:45Z
2023-12-16T14:53:18Z,42.805,6.029,13.3062,4.60165,2470.833,2023-12-16T16:55:48Z
2023-12-16T14:56:21Z,42.805,6.029,13.3058,4.60179,2470.81,2023-12-16T16:58:51Z
2023-12-16T14:59:24Z,42.805,6.029,13.3063,4.60160,2470.81,2023-12-16T17:01:54Z
2023-12-16T15:02:27Z,42.805,6.029,13.3053,4.60161,2470.81,2023-12-16T17:04:57Z